Regional Weather Roundup
Issued by NWS

Home | Current Version | Previous Version | Graphics & Text | Print | Product List | Glossary On
Versions: 1 2 3 4 5 6 7 8 9 10 11 12 13 14 15 16 17 18 19 20 21 22 23 24 25 26 27 28 29 30 31 32 33 34 35 36 37 38 39 40 41 42 43 44 45 46 47 48 49 50
000
ASUS45 KPSR 101710
RWRAZ

ARIZONA HOURLY REGIONAL WEATHER ROUNDUP
NATIONAL WEATHER SERVICE PHOENIX AZ
1000 AM MST WED FEB 10 2016

NOTE: FAIR INDICATES FEW OR NO CLOUDS BELOW 12,000 FEET WITH NO
SIGNIFICANT WEATHER AND/OR OBSTRUCTIONS TO VISIBILITY.

AZZ001>003-036-101800-
NORTHWEST ARIZONA

CITY           SKY/WX    TMP DP  RH WIND       PRES   REMARKS
BULLHEAD CITY  SUNNY     64  27  24 N17       30.28R
KINGMAN        MOSUNNY   55  24  30 N5        30.35R
$$

AZZ004>008-015-016-018-101800-
NORTH CENTRAL ARIZONA

CITY           SKY/WX    TMP DP  RH WIND       PRES   REMARKS
GRAND CANYON   SUNNY     55  12  18 E5        30.47S
WILLIAMS       SUNNY     54  10  17 SE6       30.52R
PRESCOTT       SUNNY     50  19  29 CALM      30.42S
FLAGSTAFF      SUNNY     49  14  24 NE3       30.48S
PAYSON         SUNNY     59  21  23 VRB5      30.42S
PAGE           MOSUNNY   41  29  62 NW3       30.48S
$$

AZZ009>014-017-101800-
NORTHEAST ARIZONA

CITY           SKY/WX    TMP DP  RH WIND       PRES   REMARKS
WINSLOW        SUNNY     39  24  55 SE6       30.49R WCI  35
SAINT JOHNS    SUNNY     41  20  43 E3        30.46S
WINDOW ROCK    SUNNY     40   0  18 CALM      30.48S
SHOW LOW       SUNNY     41  19  42 CALM      30.48S
$$

AZZ023-101800-
GREATER PHOENIX AREA

CITY           SKY/WX    TMP DP  RH WIND       PRES   REMARKS
PHOENIX        MOSUNNY   72  24  16 E8        30.22S
BUCKEYE        SUNNY     64  37  36 E8        30.25S
GLENDALE       MOSUNNY   64  30  27 CALM      30.26R
DEER VALLEY    SUNNY     69  24  18 CALM      30.24R
SCOTTSDALE     SUNNY     66  26  22 CALM      30.25R
MESA-FALCON    SUNNY    N/A N/A N/A N16       30.24R
MESA-GATEWAY   MOSUNNY   63  32  31 SE3       30.26R
CHANDLER       MOSUNNY   63  30  29 CALM      30.25R
$$

AZZ027-028-101800-
SOUTHWEST MARICOPA COUNTY AND PINAL COUNTY

CITY           SKY/WX    TMP DP  RH WIND       PRES   REMARKS
CASA GRANDE    SUNNY     63  27  25 CALM      30.26R
$$

AZZ503-504-507>509-101800-
SOUTHEAST ARIZONA

CITY           SKY/WX    TMP DP  RH WIND       PRES   REMARKS
TUCSON         SUNNY     70  17  13 SE21      30.29R
DAVIS-MONTHAN  SUNNY     68  21  16 SE14      30.27R
RYAN FIELD     SUNNY     68  25  19 E14       30.27S
NOGALES        SUNNY     63  16  16 VRB3      30.32R
SIERRA VISTA   SUNNY     58  17  19 NE7       30.38S
DOUGLAS        SUNNY     58  20  22 NW6       30.37S
SAFFORD        SUNNY     58  23  26 SE12      30.37R
$$

AZZ020-021-025-026-031-101800-
SOUTHWEST ARIZONA

CITY           SKY/WX    TMP DP  RH WIND       PRES   REMARKS
YUMA           MOSUNNY   69  31  24 N8        30.20R
$$

CAZ031-033-041-043-047-048-061-101800-
SOUTHERN CALIFORNIA

CITY           SKY/WX    TMP DP  RH WIND       PRES   REMARKS
DOWNTOWN L.A.  SUNNY     70  33  25 CALM      30.15R
L.A. AIRPORT   MOSUNNY   72  30  21 VRB3      30.16R
SAN DIEGO      PTSUNNY   67  33  28 CALM      30.16R
BURBANK        SUNNY     66  31  27 CALM      30.17R
ONTARIO        PTSUNNY   68  29  23 SE3       30.18S
RIVERSIDE      PTSUNNY   63  31  30 E3        30.19S
PALM SPRINGS   MOSUNNY   70  30  22 N5        30.23R
EL CENTRO NAS  MOSUNNY   67  28  23 W7        30.22R
IMPERIAL       SUNNY     68  35  29 W6        30.19R
BLYTHE         MOSUNNY   64  28  25 S6        30.25R
NEEDLES        SUNNY     65  28  24 N8        30.28R
$$

NVZ020-UTZ003-101800-
SOUTHERN NEVADA-UTAH

CITY           SKY/WX    TMP DP  RH WIND       PRES   REMARKS
LAS VEGAS      MOSUNNY   56  27  32 CALM      30.31R
SALT LAKE CITY FOG       29  27  92 W5        30.49R VSB 1/2 WCI  24
$$

NMZ009-TXZ055-101800-
NEW MEXICO-WEST TEXAS

CITY           SKY/WX    TMP DP  RH WIND       PRES   REMARKS
ALBUQUERQUE    SUNNY     43  19  38 NW6       30.45S
EL PASO        SUNNY     52  20  28 N7        30.41S
$$


........................KEY........................
SKY/WX - SKY CONDITION/WEATHER
TMP    - TEMPERATURE IN FAHRENHEIT
DP     - DEW POINT IN FAHRENHEIT
RH     - RELATIVE HUMIDITY IN PERCENT
WIND   - DIRECTION AND SPEED IN MILES PER HOUR (MPH)
VRB    - VARIABLE WIND DIRECTION
PRES   - MEAN SEA LEVEL PRESSURE IN INCHES OF MERCURY
         F - FALLING PRESSURE   R - RISING PRESSURE
         S - STEADY PRESSURE
VSB    - VISIBILITY IN MILES
HX     - HEAT INDEX IN FAHRENHEIT
WCI    - WIND CHILL INDEX IN FAHRENHEIT
TC     - TEMPERATURE IN CELSIUS WHICH IS ALSO KNOWN AS
         TEMPERATURE IN CENTIGRADE
AFB    - AIR FORCE BASE
         LUKE AFB IS LUKE AIR FORCE BASE
         DAVIS-MONTHAN IS DAVIS-MONTHAN AIR FORCE BASE
NAS    - NAVAL AIR STATION
         EL CENTRO NAS IS EL CENTRO NAVAL AIR STATION
N/A    - NOT AVAILABLE




USA.gov is the U.S. government's official web portal to all federal, state and local government web resources and services.